BREEZE-KM DEB, 41723

Orbit data source: Space-Track

BREEZE-KM DEB, 41723 is space debris in LEO originally from a launch on Tue, 31 Mar 2015 UTC launched from the Plesetsk Missile And Space Complex (PKMTR). Debris objects in space refer to the collection of defunct objects orbiting the Earth. Examples of debris include non-operational satellites, rocket bodies, and fragments generated from explosions, collisions, or faulty payload assembly.

Loading next visibility...
Identifier
41723, 2015-020L
Orbit
LEO
Country
Flag of CISCIS
Related business
Manufacturer
Khrunichev
Mission
Spacecraft
Bus & Motor
Unknown
Mass
Unknown
Launch date (UTC)
2015-03-31 (10 years ago)
Launch vehicle
Unknown
Launch site
Plesetsk Missile And Space Complex (PKMTR)
Object type
Payload
Rocket body
Debris
Shape & HBR
Unknown
Radar Cross Section
Small (<0.1 m²)

Expand to show TLE details & history
Last TLE update: 6 days ago

TLE from 6 days ago
0 BREEZE-KM DEB
1 41723U 15020L   25238.04012547  .00000349  00000-0  11137-2 0  9999
2 41723  82.4915 350.1448 0222640 208.9343 149.9274 12.92783651461199
Epoch: 2025-08-26T00:57Z
TLE epoch observation values (Epoch: 2025-08-26T00:57:46.84Z)
Latitude
-0.00003°
Longitude
1.16208°
Altitude
1,441.973 km
Speed
7.071 km/s
True Right ascension
23h 20m 34s
True Declination
0° 00' 00"
Sunlit
Object was in full shadow at epoch
Visualization orbit readout
Latitude
Unknown
Longitude
Unknown
Altitude
Unknown
Speed
Unknown
Apparent Right ascension
Unknown
Apparent Declination
Unknown
Sunlit
N/A
Visualization observer readout
Local Sidereal Time
13:55:32
Azimuth
Unknown
Elevation
Unknown
Doppler factor
Unknown
Orbital elements
Apogee altitude
1,458.449 km
Perigee altitude
1,117.101 km
Semi-major axis
7,665.912 km
Eccentricity
0.02226
Inclination
82.4915°
RAAN
350.1448°
Arg. of periapsis
208.9343°
True anomaly
151.17564°
Mean anomaly
149.9274°
Eccentric anomaly
150.5545°
Mean motion
3.23368 °/min
Orbital period
111.33 mins
BSTAR
0.0011137
Loading maneuver chart data...
Computing Atmospheric mass density...
Loading historical data...
Loading historical data...
Loading historical data...
Loading historical data...
Loading historical data...
Loading historical data...
Loading historical data...

Documentation

Showing up to 5 results
|